Wind_Speed
22 18 18 16 14 10 7 11 4 6 18 8 3 10 16 18 11 13 13 8 10 11 7 6 6 2 4 7 12 7 10 5 8 15 18 23 18 19 18 9 13 11 12 9
20 19 17 16 17 14 11 4 8 7 14 7 10 12 19 17 16 18 15 15 13 12 10 5 6 5 6 5 7 8 8 8 8 11 8 11 14 18 21 18 15 13 3 2
22 19 19 17 20 18 14 3 4 8 7 6 9 15 18 17 15 22 19 16 13 15 16 13 7 7 1 6 6 8 6 9 12 8 6 3 12 8 13 10 9 11 13 14
25 24 21 20 22 20 16 5 5 6 7 13 17 15 7 20 18 16 12 16 19 17 16 16 16 15 12 8 2 6 3 6 11 7 8 3 6 7 10 13 14 12 14 13
30 28 26 24 25 23 20 4 5 7 11 8 9 18 16 19 19 20 18 18 18 20 20 18 15 9 2 9 4 4 3 9 7 13 6 7 10 12 11 12 11 12 12 15
32 32 31 29 28 27 15 9 18 6 8 15 13 11 15 18 16 14 17 17 17 14 13 11 11 11 9 11 8 8 6 7 9 11 9 7 10 15 16 14 15 13 13 6
32 34 37 36 35 34 27 16 15 6 9 12 14 17 15 16 10 17 14 19 15 4 5 8 9 11 13 14 15 12 9 10 7 7 1 10 6 1 4 10 13 13 11 5
25 30 37 41 38 39 31 28 12 7 9 15 18 20 16 10 10 13 14 24 6 2 3 5 9 10 11 15 17 16 15 12 5 5 9 13 15 11 10 9 8 3 0 3
25 26 29 46 40 39 34 30 27 7 5 15 20 18 20 14 8 9 17 5 7 2 1 4 6 7 9 9 8 19 16 15 9 6 11 10 6 4 4 3 7 8 5 5
23 22 25 38 39 39 35 24 34 15 4 15 9 14 13 14 9 5 9 5 4 4 4 5 7 8 3 4 8 12 11 10 14 12 9 7 3 5 2 11 5 3 6 7
23 24 27 36 40 39 35 32 29 26 5 16 19 19 14 10 10 8 1 4 2 2 5 5 5 5 6 6 3 10 11 9 7 9 6 15 8 5 7 8 4 8 8 10
26 26 30 33 36 40 44 16 37 37 9 7 19 30 26 24 7 6 7 5 3 7 6 7 4 4 3 8 8 11 7 8 8 10 8 4 2 7 7 8 8 10 11 12
29 27 29 32 34 35 39 26 26 26 7 7 15 17 15 26 27 11 3 2 3 6 7 2 3 5 5 5 9 9 10 5 4 1 5 1 10 2 12 10 10 10 12 12
25 30 31 29 31 33 35 21 33 29 4 4 10 22 31 17 22 21 19 12 9 7 4 3 4 4 4 6 7 9 8 6 12 10 11 10 1 12 12 11 12 13 13 12
25 28 27 29 31 28 30 26 33 31 10 5 11 14 18 27 29 22 22 19 10 4 2 3 4 6 5 6 6 8 8 8 6 4 10 7 9 12 13 11 13 13 14 13
24 24 26 32 27 31 19 3 21 34 28 3 2 9 10 14 23 22 18 12 7 3 2 2 3 4 1 3 7 12 3 10 10 5 9 8 9 11 12 10 12 12 11 11
24 24 25 29 30 28 4 3 11 36 24 4 3 3 3 18 14 8 6 7 2 3 0 3 3 6 5 3 5 5 8 9 8 10 11 0 9 7 10 10 10 10 11 12
24 27 31 29 31 15 2 3 24 41 9 4 3 2 5 10 3 3 4 2 3 4 2 2 4 4 2 2 8 7 9 8 6 10 8 6 6 6 8 8 8 6 8 8
30 36 35 26 5 3 4 26 37 20 4 4 3 4 4 7 4 4 3 3 1 4 3 4 4 4 0 4 5 7 8 7 9 10 6 3 3 4 7 8 8 7 7 7
48 35 5 3 6 21 19 7 2 3 2 3 3 3 3 7 6 5 4 3 2 3 5 2 2 3 7 5 5 5 6 7 8 8 6 8 7 6 7 8 7 7 7 8
9 2 3 23 29 6 1 3 3 3 4 4 2 2 6 2 6 4 3 2 3 3 3 2 3 3 3 5 6 7 7 6 6 4 4 5 5 5 5 7 7 10 11 12
10 17 17 5 1 2 4 3 3 2 3 3 4 3 3 2 2 3 3 2 2 1 3 2 3 4 6 6 6 7 6 7 7 8 7 8 9 10 10 10 11 13 14 15
13 5 4 1 3 2 1 5 3 4 2 2 2 3 2 1 1 2 1 3 2 1 1 2 4 6 6 5 5 6 9 9 10 10 11 13 15 15 15 14 14 15 16 16
4 3 5 4 3 4 3 4 4 3 2 1 2 3 2 2 2 2 2 2 3 3 4 3 5 7 6 6 6 7 8 9 10 11 14 15 16 16 16 15 14 16 18 17
5 5 4 4 2 4 3 1 1 3 3 2 3 4 3 3 3 2 2 2 3 5 4 3 5 6 6 7 7 8 8 8 9 12 13 14 15 16 18 17 17 17 17 17
4 7 3 1 4 6 5 5 5 5 4 3 1 3 3 3 2 2 3 1 3 3 4 5 5 6 7 7 8 9 11 12 13 14 14 15 15 17 17 17 18 18 17 17
4 4 4 4 5 6 4 5 5 5 3 3 2 3 3 2 3 3 4 3 5 5 5 6 7 7 7 7 10 11 12 13 13 14 14 14 14 13 15 15 14 15 15 15
Wind_Direction
269 263 263 249 234 226 233 249 226 148 172 193 194 222 222 256 269 227 243 265 274 274 291 288 288 315 312 8 349 338 209 298 251 215 216 221 237 225 221 245 230 235 245 255
264 261 259 252 230 213 233 232 234 209 193 217 220 230 238 240 248 241 237 236 249 264 265 274 230 271 89 25 350 343 326 229 246 208 198 229 229 218 221 239 258 224 229 213
257 251 252 245 229 221 220 247 227 218 204 221 263 232 230 238 229 248 245 249 254 255 252 251 259 250 293 328 343 309 283 272 259 248 336 262 224 200 235 236 242 247 254 269
253 251 245 238 231 219 201 223 233 225 204 228 232 242 280 231 222 223 238 246 244 243 249 253 250 253 262 281 108 284 246 291 311 238 271 317 308 250 243 243 243 253 242 241
251 244 238 234 226 213 208 204 221 243 254 242 244 216 240 249 230 227 226 232 240 232 243 250 252 303 248 263 271 297 269 260 246 277 262 274 270 261 250 263 270 270 271 265
245 239 233 230 223 208 208 208 259 268 246 244 238 231 241 246 259 299 250 231 235 249 256 268 281 277 246 265 277 275 274 259 246 265 259 290 272 250 251 250 239 244 247 285
242 235 230 225 222 213 215 216 225 228 242 246 256 238 248 246 236 245 258 253 234 243 330 266 253 256 253 248 244 240 254 246 247 269 244 243 233 346 300 244 254 254 265 325
258 242 230 219 220 215 214 217 218 218 239 241 245 250 262 274 284 249 246 249 352 104 280 285 244 227 232 232 229 224 218 245 233 238 236 269 291 276 251 241 248 94 316 25
258 255 245 209 213 214 212 219 219 232 238 238 250 244 233 242 237 278 253 69 233 153 280 252 242 223 209 188 188 201 205 220 238 214 246 250 251 72 342 269 188 90 58 29
255 246 219 207 209 210 211 221 217 221 240 245 264 241 256 239 228 254 270 151 144 192 185 251 247 237 240 221 194 181 186 200 221 225 244 252 312 139 130 224 97 48 8 358
248 235 223 214 210 212 205 223 213 205 225 242 241 249 260 259 259 229 278 114 133 152 223 236 235 239 222 250 196 174 182 186 201 229 240 241 276 272 251 48 11 5 6 2
244 230 222 218 218 217 212 216 205 210 224 253 245 247 254 271 269 279 173 236 158 196 227 235 247 255 214 234 245 188 208 202 197 198 218 174 190 84 53 33 1 357 351 351
231 224 218 218 215 217 211 205 186 189 205 243 256 239 246 246 252 270 200 260 242 246 248 282 278 245 238 225 244 248 244 212 245 53 250 56 239 153 57 22 3 6 4 355
226 217 218 215 214 213 209 198 186 178 130 234 247 231 237 249 228 239 226 236 230 266 300 263 248 257 270 257 266 271 253 254 244 263 270 280 296 55 31 2 355 1 359 358
219 212 211 211 207 205 195 180 181 177 178 214 226 230 239 226 227 232 224 223 234 237 202 223 227 250 261 269 273 267 254 269 256 268 40 351 30 14 20 1 0 351 350 350
212 207 212 195 195 188 173 154 194 195 209 268 232 227 219 201 210 230 238 218 224 203 205 220 244 243 41 279 240 241 23 50 27 33 3 342 334 61 28 16 357 358 340 0
201 197 188 184 181 175 175 179 176 184 181 210 257 202 213 199 195 222 214 210 211 190 131 216 265 252 204 203 255 71 34 21 15 27 354 74 25 355 1 3 0 1 17 23
179 174 166 163 155 153 265 281 175 163 159 221 226 144 162 160 179 180 156 139 166 170 169 228 230 250 208 231 42 43 19 345 57 5 339 15 24 16 13 10 3 30 39 35
160 152 142 127 124 117 168 145 145 148 172 191 212 188 155 162 180 158 191 203 154 174 209 218 241 239 152 56 22 19 13 9 343 325 314 355 25 14 18 13 16 34 43 53
127 119 104 123 167 144 106 64 107 152 232 204 229 119 124 184 174 177 168 144 203 214 197 164 212 81 86 55 41 24 7 356 358 346 6 0 348 10 31 38 41 55 67 74
111 111 91 117 125 129 120 134 160 141 171 192 162 157 149 197 178 152 212 195 198 240 133 240 159 104 66 26 20 12 360 2 11 12 17 6 14 30 64 69 67 74 80 81
120 115 95 94 83 173 154 128 132 191 113 124 137 115 78 97 319 160 180 215 220 209 136 223 141 78 46 36 36 23 16 23 36 35 48 51 57 64 75 80 80 84 88 88
110 83 87 210 355 96 217 135 122 120 70 98 124 119 106 130 24 83 226 213 50 226 195 60 54 66 47 34 46 43 37 46 60 63 65 68 70 70 80 83 83 87 81 79
56 54 65 16 76 70 49 26 52 61 19 39 169 126 119 146 95 331 125 56 197 182 190 87 71 56 49 59 67 74 69 71 77 77 76 78 81 82 79 81 85 85 80 77
54 29 55 55 81 59 40 352 133 34 328 316 122 82 75 54 84 37 129 144 120 15 54 71 66 61 55 65 70 75 80 82 84 83 82 81 83 83 77 73 76 77 76 72
56 36 90 77 116 77 56 32 60 19 339 278 139 108 87 65 59 64 39 307 56 79 68 76 83 75 73 72 76 75 79 84 87 86 87 86 85 86 86 81 76 74 76 76
53 61 23 47 63 48 42 14 6 328 318 58 46 63 62 130 75 82 16 35 80 92 79 64 60 74 79 78 73 71 78 82 84 86 86 87 89 91 89 85 85 85 83 80
Height
779 780 781 781 783 786 787 783 781 766 771 776 770 768 755 749 741 740 743 741 739 735 727 729 723 717 721 719 714 709 698 702 701 696 681 684 683 688 690 699 700 689 692 688
774 774 776 777 779 781 781 780 772 767 770 765 762 757 750 748 744 741 739 739 735 731 732 735 724 721 719 722 722 724 718 702 702 703 693 680 681 677 680 683 684 705 727 693
768 769 771 773 775 778 781 778 770 762 766 764 756 747 746 745 743 740 734 734 732 731 733 726 727 724 721 722 722 729 723 709 696 699 696 682 683 679 684 684 695 692 689 682
761 763 765 768 770 774 779 774 765 749 753 753 753 759 756 736 735 736 735 737 732 733 732 726 723 720 721 720 723 717 718 723 708 697 701 695 689 687 684 685 684 692 689 683
752 755 757 760 764 769 772 768 762 753 746 743 744 743 747 740 724 727 733 733 728 728 729 728 724 720 722 723 718 719 713 714 710 712 695 696 700 693 690 687 684 682 681 680
739 744 748 752 756 762 763 766 760 757 747 739 741 739 738 736 737 738 728 727 726 729 728 726 727 728 732 727 725 723 723 714 707 710 696 699 706 693 690 686 682 682 687 675
726 731 737 742 746 753 756 757 758 758 750 740 731 729 736 730 736 740 733 725 724 728 732 729 728 728 726 725 723 724 723 716 710 710 709 714 684 675 676 677 674 669 670 670
717 720 723 730 737 743 750 752 755 752 749 738 732 731 731 732 733 735 744 740 724 733 737 737 727 724 725 720 715 716 718 716 715 715 703 690 680 678 679 680 678 671 677 677
708 709 710 716 727 735 742 745 750 752 747 734 729 725 724 726 730 738 725 737 738 737 742 743 723 707 703 699 698 703 710 715 715 712 715 708 682 676 674 672 684 679 682 685
699 701 704 710 719 727 734 737 745 750 744 733 732 723 720 718 727 736 730 738 741 743 746 737 717 702 692 697 697 708 714 721 717 716 710 691 673 672 677 690 699 692 690 689
691 694 698 704 711 718 727 729 737 743 740 731 731 730 732 726 721 726 737 738 744 749 739 727 709 702 698 690 688 698 705 716 718 715 718 708 679 678 689 690 690 692 693 693
682 686 691 696 702 709 718 722 727 737 740 728 727 728 729 727 730 735 732 731 734 731 731 711 703 702 696 691 692 686 699 695 696 696 691 681 679 685 692 695 696 696 697 696
671 677 682 688 695 701 707 713 720 730 733 733 727 720 725 725 723 726 731 734 730 724 717 721 717 711 695 698 690 687 682 695 697 703 683 691 681 682 689 697 700 701 703 702
663 669 674 681 687 694 701 705 711 720 725 726 709 712 717 719 719 724 726 727 730 731 729 727 718 710 694 693 689 687 681 682 680 679 678 675 677 688 698 705 704 706 709 709
655 661 667 674 681 688 697 701 705 709 711 708 704 704 706 710 715 717 721 725 726 730 730 728 720 703 704 697 695 691 679 682 685 688 696 694 692 703 709 709 713 715 717 716
649 655 661 668 676 686 693 699 702 706 710 709 704 697 700 705 710 713 715 720 726 728 725 723 709 705 711 707 691 685 685 697 704 702 710 709 708 713 722 722 724 722 721 723
643 650 658 665 674 681 685 686 689 700 712 715 706 697 698 700 708 712 714 719 723 723 725 723 718 705 706 713 700 718 711 712 711 717 717 708 718 724 728 728 728 727 727 731
641 649 658 667 675 682 684 682 684 697 709 710 701 695 698 703 708 710 714 719 720 721 720 722 715 703 709 709 722 721 726 723 720 727 726 728 732 734 734 734 732 731 735 739
641 651 661 671 678 681 683 686 691 698 704 698 695 689 693 702 702 705 711 708 711 716 717 713 707 700 712 739 739 736 739 738 738 735 728 731 734 734 737 738 738 737 741 743
644 656 666 673 677 679 682 690 695 698 698 692 688 687 695 695 697 700 707 707 710 706 708 713 708 732 742 741 741 743 745 744 744 738 734 737 737 738 742 744 746 747 749 750
651 658 663 672 677 682 685 686 686 691 690 688 685 688 690 699 695 701 708 705 700 692 702 700 700 722 745 746 747 749 749 747 746 746 747 747 745 745 746 749 751 753 755 755
648 657 669 677 680 678 675 676 681 675 680 687 689 693 695 701 702 694 706 700 697 693 702 699 704 742 748 749 753 754 754 752 751 751 751 751 751 752 753 755 758 760 761 761
655 662 673 670 681 676 668 673 674 680 689 694 696 698 700 705 705 702 697 696 701 707 704 712 738 751 756 758 758 759 758 757 757 758 758 759 759 760 762 764 765 766 767 767
661 668 683 679 682 688 690 688 689 700 698 698 694 695 696 702 705 706 701 715 706 705 704 726 748 758 761 762 762 762 765 765 766 766 767 767 767 768 770 771 772 772 773 774
677 681 689 697 703 704 705 704 701 704 703 699 691 692 694 705 709 711 711 712 712 721 728 747 758 763 764 765 766 767 769 770 770 771 772 773 774 775 776 778 778 779 779 779
695 703 701 704 699 704 706 706 705 710 707 700 691 696 704 715 714 715 723 711 719 743 754 762 766 770 771 771 772 773 774 775 776 777 778 779 780 781 782 784 785 785 786 786
705 715 716 711 712 715 715 715 714 713 705 703 696 705 719 715 720 732 740 744 755 762 768 772 774 775 777 778 779 779 779 780 781 782 784 784 786 787 787 788 790 790 791 791